EW2749 Weather Reports


time (UTC)temp
C
wind
direction
speed
KPH
gust
KPH
rain 1hr
cm
rain 24hr
cm
rain mn
cm
humidity
%
barometer
mb
20260507212159 10 338 14.5 27.4 0.00 0.53 0.05 45 1007.0
20260507211722 10 338 17.7 29.0 0.00 0.53 0.05 46 1007.0
20260507211014 10 338 12.9 25.7 0.00 0.53 0.05 44 1006.9
20260507210537 10 293 14.5 22.5 0.00 0.56 0.05 46 1006.7
20260507210055 10 315 17.7 29.0 0.00 0.56 0.05 45 1006.8
20260507205609 10 338 9.7 25.7 0.00 0.58 0.05 48 1006.7
20260507205134 10 293 14.5 25.7 0.00 0.58 0.05 46 1006.6
20260507204652 10 293 14.5 24.1 0.00 0.58 0.05 43 1006.6
20260507204244 10 0 14.5 24.1 0.00 0.61 0.05 44 1006.5
20260507203527 10 338 16.1 25.7 0.00 0.61 0.05 46 1006.4
20260507203044 10 293 16.1 27.4 0.00 0.61 0.05 44 1006.4
20260507202542 10 315 16.1 30.6 0.00 0.61 0.05 45 1006.3
20260507202101 10 338 16.1 24.1 0.00 0.61 0.05 48 1006.2
20260507201620 10 338 16.1 25.7 0.00 0.61 0.05 48 1006.3
20260507201139 10 315 17.7 27.4 0.00 0.61 0.05 47 1006.2
20260507200719 10 338 14.5 25.7 0.00 0.61 0.05 48 1006.2
20260507200015 10 315 17.7 25.7 0.00 0.61 0.05 46 1006.4
20260507195030 10 315 12.9 20.9 0.00 0.61 0.05 47 1006.2
20260507194522 10 338 14.5 33.8 0.00 0.61 0.05 48 1006.4
20260507194110 10 315 16.1 24.1 0.00 0.61 0.05 48 1006.4
20260507193608 10 338 12.9 24.1 0.00 0.61 0.05 47 1006.2
20260507193139 10 338 14.5 30.6 0.00 0.61 0.05 46 1006.3
20260507192641 10 315 16.1 27.4 0.00 0.61 0.05 49 1006.4
20260507192157 10 338 12.9 20.9 0.00 0.61 0.05 48 1006.3
20260507191736 10 338 11.3 20.9 0.00 0.64 0.05 49 1006.3
20260507191010 10 315 14.5 22.5 0.00 0.64 0.05 51 1006.4
20260507190530 10 338 9.7 24.1 0.00 0.64 0.05 49 1006.6
20260507190043 10 293 11.3 20.9 0.00 0.64 0.05 47 1006.5
20260507185603 10 225 9.7 17.7 0.00 0.66 0.05 52 1006.5
20260507185129 10 315 14.5 25.7 0.00 0.66 0.05 52 1006.5
20260507184640 10 0 9.7 19.3 0.00 0.69 0.05 49 1006.6
20260507184200 10 315 14.5 25.7 0.00 0.69 0.05 51 1006.6
20260507183715 10 225 11.3 19.3 0.00 0.71 0.05 51 1006.7
20260507183018 10 270 14.5 27.4 0.00 0.71 0.05 52 1006.7
20260507182530 10 270 12.9 27.4 0.00 0.74 0.05 48 1006.6
20260507182052 10 270 17.7 29.0 0.00 0.76 0.05 48 1006.6
20260507181652 10 270 17.7 32.2 0.00 0.81 0.05 52 1006.6
20260507180734 10 270 19.3 32.2 0.00 0.81 0.05 50 1006.8
20260507180130 9 315 14.5 35.4 0.00 0.84 0.05 48 1006.7
20260507175652 9 315 16.1 25.7 0.00 0.86 0.05 53 1006.6
20260507175211 10 315 19.3 32.2 0.00 0.86 0.05 49 1006.7
20260507174503 10 293 12.9 24.1 0.00 0.89 0.05 52 1006.7
20260507174046 10 248 16.1 40.2 0.00 0.91 0.05 58 1006.8
20260507173545 10 315 16.1 32.2 0.00 0.91 0.05 53 1006.7
20260507173105 10 270 17.7 27.4 0.00 0.94 0.05 55 1006.8
20260507172617 10 270 14.5 27.4 0.00 0.97 0.05 51 1006.6
20260507172140 9 315 16.1 30.6 0.00 0.97 0.05 52 1006.7
20260507171658 10 315 17.7 33.8 0.00 0.99 0.05 54 1006.8
20260507171215 10 315 19.3 38.6 0.00 0.99 0.05 53 1006.9
20260507170515 9 315 14.5 20.9 0.00 1.02 0.05 55 1006.9
20260507170051 9 248 12.9 25.7 0.00 1.02 0.05 60 1006.9
20260507165611 9 315 14.5 29.0 0.00 1.04 0.05 59 1007.0
20260507165112 8 315 9.7 19.3 0.00 1.04 0.05 57 1007.0
20260507164630 8 225 16.1 29.0 0.00 1.07 0.05 59 1007.2
20260507164145 8 225 17.7 27.4 0.00 1.07 0.05 61 1007.2
20260507163739 8 225 17.7 30.6 0.00 1.09 0.05 59 1007.3
20260507163019 8 225 16.1 29.0 0.00 1.09 0.05 59 1007.2
20260507162712 8 225 16.1 27.4 0.00 1.12 0.05 64 1007.3
20260507162011 8 270 11.3 19.3 0.00 1.12 0.05 61 1007.4
20260507161527 8 293 12.9 20.9 0.00 1.12 0.05 63 1007.2
20260507161039 8 270 11.3 22.5 0.00 1.14 0.05 66 1007.3
20260507160552 8 293 9.7 16.1 0.00 1.14 0.05 74 1007.5
20260507160115 8 293 12.9 22.5 0.03 1.14 0.05 72 1007.7
20260507155630 8 293 12.9 19.3 0.03 1.17 0.05 73 1007.7
20260507155152 8 225 14.5 24.1 0.03 1.17 0.05 70 1007.7
20260507154711 8 225 12.9 22.5 0.03 1.19 0.05 71 1007.7
20260507154010 8 338 11.3 19.3 0.03 1.19 0.05 70 1007.6
20260507153531 8 270 9.7 22.5 0.03 1.22 0.05 79 1007.8
20260507153047 7 225 11.3 19.3 0.03 1.24 0.05 78 1007.6
20260507152606 7 225 11.3 20.9 0.03 1.24 0.05 80 1007.6
20260507152125 7 225 8.0 16.1 0.03 1.27 0.05 83 1007.7
20260507151640 7 225 12.9 30.6 0.03 1.27 0.05 81 1007.8
20260507151158 7 203 11.3 30.6 0.03 1.30 0.05 81 1007.8
20260507150740 6 203 6.4 12.9 0.03 1.30 0.05 88 1007.6
20260507150035 6 225 8.0 17.7 0.00 1.30 0.03 87 1007.7
20260507145538 6 225 9.7 17.7 0.00 1.32 0.03 86 1007.9
20260507145053 6 225 6.4 16.1 0.00 1.32 0.03 87 1007.7
20260507144613 6 225 4.8 11.3 0.00 1.35 0.03 91 1007.7
20260507144128 6 180 3.2 8.0 0.00 1.35 0.03 90 1007.7
20260507143650 6 225 6.4 9.7 0.00 1.37 0.03 90 1007.9
20260507143209 5 225 6.4 11.3 0.00 1.37 0.03 90 1007.9
20260507142509 5 315 8.0 14.5 0.00 1.40 0.03 89 1007.9
20260507142021 6 293 11.3 19.3 0.00 1.40 0.03 91 1008.1
20260507141544 6 225 4.8 11.3 0.00 1.40 0.03 92 1007.8
20260507141056 6 225 4.8 9.7 0.00 1.40 0.03 93 1007.8
20260507140622 6 225 6.4 11.3 0.00 1.40 0.03 94 1007.9
20260507140138 6 225 6.4 9.7 0.00 1.42 0.03 93 1007.9
20260507135720 6 225 6.4 8.0 0.00 1.42 0.03 93 1007.9
20260507135210 6 225 4.8 8.0 0.00 1.42 0.03 94 1007.9
20260507134518 6 225 4.8 8.0 0.00 1.45 0.03 94 1007.8
20260507134028 6 225 4.8 8.0 0.00 1.45 0.03 94 1007.8
20260507133554 6 225 4.8 8.0 0.00 1.47 0.03 94 1007.8
20260507133112 6 225 4.8 6.4 0.00 1.50 0.03 94 1007.8
20260507132632 6 248 4.8 9.7 0.00 1.52 0.03 95 1007.8
20260507132150 6 248 6.4 9.7 0.00 1.52 0.03 93 1008.0
20260507131711 6 248 4.8 9.7 0.00 1.52 0.03 94 1008.0
20260507131008 6 203 4.8 8.0 0.00 1.52 0.03 94 1008.1
20260507130522 5 203 3.2 8.0 0.00 1.55 0.03 94 1008.1
20260507130034 5 225 4.8 9.7 0.00 1.55 0.03 94 1008.1
20260507125600 5 225 3.2 6.4 0.00 1.55 0.03 95 1008.0
20260507125118 5 225 3.2 6.4 0.00 1.57 0.03 95 1008.0
20260507124639 5 225 4.8 8.0 0.00 1.57 0.03 95 1008.1
20260507124152 5 225 4.8 8.0 0.00 1.57 0.03 96 1008.1
20260507123734 5 225 3.2 8.0 0.00 1.57 0.03 96 1008.1
20260507123017 5 225 3.2 4.8 0.00 1.57 0.03 97 1008.0
20260507122531 5 225 3.2 6.4 0.00 1.57 0.03 97 1008.0
20260507122054 5 225 1.6 3.2 0.00 1.57 0.03 98 1007.9
20260507121549 5 0.0 3.2 0.00 1.57 0.03 98 1008.0
20260507121050 5 225 1.6 4.8 0.00 1.57 0.03 99 1008.1
20260507120651 5 225 3.2 6.4 0.00 1.57 0.03 99 1008.0
20260507120124 5 225 3.2 6.4 0.00 1.57 0.03 99 1008.0
20260507115650 5 203 1.6 3.2 0.00 1.57 0.03 99 1007.9
20260507115210 5 0.0 0.0 0.00 1.57 0.03 99 1007.9
20260507114500 5 0.0 1.6 0.00 1.57 0.03 99 1007.9
20260507114026 5 0.0 0.0 0.00 1.57 0.03 99 1008.0
20260507113602 5 0.0 1.6 0.00 1.57 0.03 99 1008.0
20260507113059 5 0.0 3.2 0.00 1.57 0.03 99 1008.0
20260507112615 5 0.0 3.2 0.00 1.57 0.03 99 1007.8
20260507112140 5 0.0 1.6 0.00 1.57 0.03 99 1008.0
20260507111656 5 0.0 3.2 0.00 1.57 0.03 99 1007.9
20260507111324 5 0.0 1.6 0.00 1.57 0.03 99 1008.0
20260507110516 4 0.0 1.6 0.00 1.57 0.03 99 1007.9
20260507110037 4 0.0 1.6 0.00 1.57 0.03 99 1007.9
20260507105552 4 0.0 1.6 0.00 1.57 0.03 99 1008.0
20260507105112 4 0.0 3.2 0.00 1.57 0.03 99 1008.0
20260507104633 4 0.0 3.2 0.00 1.57 0.03 99 1007.9
20260507104153 4 0.0 1.6 0.00 1.57 0.03 99 1007.9
20260507103725 4 0.0 1.6 0.00 1.57 0.03 99 1007.8
20260507103227 4 0.0 1.6 0.00 1.57 0.03 99 1007.8
20260507102522 4 0.0 1.6 0.00 1.57 0.03 99 1007.8
20260507102040 4 0.0 3.2 0.00 1.57 0.03 99 1007.8
20260507101556 4 0.0 3.2 0.00 1.57 0.03 99 1007.7
20260507101115 4 225 1.6 4.8 0.00 1.57 0.03 99 1007.8
20260507100656 4 225 4.8 6.4 0.00 1.57 0.03 99 1007.9
20260507100159 4 225 3.2 6.4 0.00 1.57 0.03 99 1008.0
20260507095715 4 248 3.2 4.8 0.00 1.57 0.03 99 1007.8
20260507095009 3 248 1.6 4.8 0.00 1.57 0.03 99 1007.7
20260507094535 3 0.0 0.0 0.00 1.57 0.03 98 1007.5
20260507094048 3 0.0 0.0 0.00 1.57 0.03 98 1007.5
20260507093610 3 0.0 0.0 0.00 1.57 0.03 98 1007.5
20260507093126 3 0.0 0.0 0.00 1.57 0.03 98 1007.6
20260507092639 3 0.0 0.0 0.00 1.57 0.03 99 1007.4
20260507092103 3 0.0 0.0 0.00 1.57 0.03 98 1007.8
20260507091015 3 0.0 0.0 0.00 1.57 0.03 99 1007.7
20260507090535 3 0.0 0.0 0.00 1.57 0.03 98 1007.8
20260507090055 3 0.0 0.0 0.00 1.57 0.03 98 1007.8
20260507085616 3 0.0 0.0 0.00 1.57 0.03 98 1007.9
20260507085131 3 0.0 0.0 0.00 1.57 0.03 98 1008.0
20260507084705 3 0.0 0.0 0.00 1.57 0.03 98 1008.0
20260507084021 3 0.0 0.0 0.00 1.57 0.03 98 1008.0
20260507083020 3 0.0 0.0 0.00 1.57 0.03 98 1007.8
20260507082613 3 0.0 0.0 0.00 1.57 0.03 98 1007.6
20260507081624 3 0.0 0.0 0.00 1.57 0.03 98 1007.5
20260507081138 3 0.0 0.0 0.00 1.57 0.03 98 1007.5
20260507080700 3 0.0 0.0 0.00 1.57 0.03 98 1007.4
20260507080210 4 0.0 0.0 0.00 1.57 0.03 98 1007.5
20260507075515 4 0.0 0.0 0.00 1.57 0.03 98 1007.4
20260507075049 4 0.0 0.0 0.00 1.57 0.03 98 1007.5
20260507074550 4 0.0 0.0 0.00 1.57 0.03 98 1007.5
20260507074108 4 0.0 0.0 0.00 1.60 0.03 97 1007.5
20260507073631 4 0.0 0.0 0.00 1.63 0.03 97 1007.5
20260507073146 4 0.0 0.0 0.00 1.65 0.03 97 1007.4
20260507072723 4 0.0 0.0 0.00 1.65 0.03 97 1007.4
20260507072147 4 0.0 0.0 0.00 1.65 0.03 97 1007.4
20260507071705 4 0.0 0.0 0.00 1.65 0.03 97 1007.4
20260507071238 4 0.0 0.0 0.00 1.65 0.03 97 1007.4
20260507070518 4 0.0 0.0 0.00 1.65 0.03 96 1007.4
20260507070043 4 0.0 0.0 0.00 1.65 0.03 96 1007.3
20260507065557 4 0.0 0.0 0.00 1.65 0.03 96 1007.3
20260507065117 4 0.0 0.0 0.00 1.65 0.03 95 1007.3
20260507064635 5 0.0 0.0 0.00 1.65 0.03 95 1007.4
20260507064154 5 0.0 0.0 0.00 1.65 0.03 94 1007.3
20260507063714 5 0.0 1.6 0.00 1.68 0.03 95 1007.2
20260507063040 5 315 3.2 6.4 0.00 1.68 0.03 95 1007.8
20260507062536 5 315 6.4 8.0 0.00 1.70 0.03 96 1007.8
20260507062051 5 315 4.8 8.0 0.00 1.73 0.03 96 1007.8
20260507061634 5 315 4.8 6.4 0.00 1.73 0.03 96 1007.7
20260507061155 5 293 3.2 4.8 0.00 1.75 0.03 96 1007.7
20260507060718 5 0.0 3.2 0.00 1.80 0.03 95 1007.5
20260507060213 5 23 1.6 4.8 0.00 1.80 0.03 95 1007.2
20260507055512 5 23 1.6 3.2 0.00 1.83 0.03 94 1007.3
20260507055050 5 23 1.6 4.8 0.00 1.85 0.03 94 1007.5
20260507054542 6 0.0 3.2 0.00 1.85 0.03 94 1007.7
20260507054100 6 23 1.6 6.4 0.00 1.85 0.03 94 1007.8
20260507053622 6 0 4.8 9.7 0.00 1.85 0.03 94 1007.6
20260507053142 6 338 6.4 9.7 0.00 1.85 0.03 94 1007.9
20260507052659 6 338 6.4 9.7 0.00 1.85 0.03 94 1007.9
20260507052220 6 338 3.2 8.0 0.00 1.85 0.03 95 1007.8
20260507051516 6 0 3.2 6.4 0.03 1.85 0.03 95 1007.7
20260507051035 6 338 4.8 11.3 0.03 1.85 0.03 95 1007.7
20260507050555 6 338 6.4 12.9 0.03 1.85 0.03 96 1007.6
20260507050125 6 0 4.8 8.0 0.03 1.88 0.03 96 1007.7
20260507045153 6 45 1.6 4.8 0.03 1.93 0.03 96 1007.7
20260507044712 6 23 1.6 4.8 0.03 1.96 0.03 95 1007.6
20260507044007 6 23 1.6 8.0 0.05 1.96 0.03 95 1007.6
20260507043550 6 338 3.2 8.0 0.05 1.96 0.03 95 1007.6
20260507043049 6 0 3.2 8.0 0.05 1.96 0.03 96 1007.7
20260507042613 6 338 4.8 8.0 0.05 1.96 0.03 96 1007.8
20260507042127 6 338 3.2 6.4 0.05 1.98 0.03 96 1007.8
20260507041645 6 315 3.2 6.4 0.05 1.96 0.00 97 1008.0
20260507041121 6 315 3.2 8.0 0.05 1.96 0.00 97 1008.2
20260507040027 6 0.0 0.0 0.05 1.96 0.00 97 1007.9
20260507035542 6 0.0 0.0 0.08 1.96 1.96 97 1007.7
20260507035102 6 0.0 0.0 0.08 1.96 1.96 97 1007.7
20260507034619 6 0.0 1.6 0.08 1.96 1.96 97 1007.7
20260507034203 6 338 1.6 4.8 0.05 1.93 1.93 96 1007.8
20260507033538 6 315 3.2 6.4 0.08 1.96 1.93 97 1007.8
20260507032519 6 0.0 1.6 0.08 1.98 1.93 97 1007.8
20260507032036 6 0.0 1.6 0.10 1.98 1.93 96 1007.5
20260507031621 6 0.0 1.6 0.08 1.96 1.91 96 1007.6
20260507031026 6 0 1.6 3.2 0.08 1.96 1.91 96 1007.8
20260507030633 6 0 1.6 6.4 0.08 1.96 1.91 96 1008.2
20260507030213 6 0 3.2 8.0 0.10 1.96 1.91 95 1008.2
20260507025706 6 0 3.2 6.4 0.08 1.93 1.88 96 1008.3
20260507025008 6 338 3.2 4.8 0.08 1.93 1.88 96 1008.5
20260507024523 6 338 4.8 8.0 0.08 1.93 1.88 96 1008.4
20260507024048 6 338 4.8 8.0 0.10 1.93 1.88 95 1008.5
20260507023600 6 338 8.0 14.5 0.08 1.91 1.85 95 1008.5
20260507023117 6 338 8.0 14.5 0.08 1.91 1.85 95 1008.5
20260507022637 6 338 11.3 17.7 0.10 1.91 1.85 95 1008.5
20260507022038 6 338 8.0 14.5 0.08 1.88 1.83 96 1008.3
20260507021015 6 0.0 4.8 0.08 1.88 1.83 96 1008.2
20260507020533 6 0.0 3.2 0.10 1.88 1.83 96 1008.2
20260507020053 6 315 1.6 4.8 0.08 1.85 1.80 96 1008.2
20260507015605 6 293 1.6 4.8 0.08 1.85 1.80 95 1008.1
20260507015134 6 315 4.8 8.0 0.10 1.85 1.80 95 1008.1
20260507014649 6 315 6.4 9.7 0.10 1.85 1.80 95 1008.0
20260507014202 6 338 3.2 8.0 0.08 1.83 1.78 97 1007.8
20260507013722 6 0.0 3.2 0.08 1.83 1.78 97 1007.7
20260507013020 6 338 1.6 6.4 0.10 1.83 1.78 97 1007.8
20260507012538 6 338 1.6 6.4 0.08 1.80 1.75 96 1007.9
20260507012104 6 338 4.8 6.4 0.08 1.80 1.75 97 1007.9
20260507011614 6 338 3.2 8.0 0.08 1.80 1.75 97 1007.7
20260507011138 6 338 6.4 8.0 0.08 1.80 1.75 97 1007.7
20260507010658 6 338 4.8 8.0 0.08 1.78 1.73 98 1007.8
20260507010214 7 0.0 3.2 0.08 1.78 1.73 98 1007.5
20260507005515 7 0.0 3.2 0.08 1.78 1.73 98 1007.3
20260507005029 7 0.0 3.2 0.05 1.75 1.70 98 1007.3
20260507004548 7 0.0 3.2 0.05 1.75 1.70 98 1007.2
20260507004105 7 0.0 1.6 0.08 1.75 1.70 98 1007.2
20260507003630 7 0.0 1.6 0.08 1.75 1.70 98 1007.1
20260507003147 7 0.0 1.6 0.05 1.73 1.68 98 1007.2
20260507002705 7 0.0 1.6 0.05 1.73 1.68 98 1007.3
20260507002003 7 0.0 1.6 0.05 1.73 1.68 97 1007.2
20260507001520 7 0.0 1.6 0.05 1.73 1.68 97 1007.1
20260507001005 7 0.0 1.6 0.05 1.73 1.68 97 1007.1
20260507000521 7 0.0 1.6 0.05 1.70 1.65 97 1006.8
20260507000045 7 0.0 3.2 0.05 1.70 1.65 97 1006.7
20260506235559 7 23 1.6 4.8 0.05 1.70 1.65 97 1006.7
20260506235124 7 0.0 0.0 0.05 1.70 1.65 98 1006.8
20260506234155 7 0.0 1.6 0.03 1.68 1.63 98 1006.7
20260506233716 7 0 1.6 4.8 0.03 1.68 1.63 98 1006.9
20260506233017 7 315 3.2 6.4 0.05 1.68 1.63 98 1006.9
20260506232535 7 315 3.2 6.4 0.05 1.68 1.63 98 1006.6
20260506232052 7 315 1.6 6.4 0.05 1.68 1.63 98 1006.6
20260506231612 7 0.0 1.6 0.05 1.68 1.63 98 1006.5
20260506231129 7 0.0 0.0 0.08 1.68 1.63 98 1006.5
20260506230648 7 0.0 3.2 0.05 1.65 1.60 98 1006.6
20260506230228 7 0.0 0.0 0.08 1.65 1.60 98 1006.5
20260506225505 8 0.0 3.2 0.08 1.65 1.60 97 1006.4
20260506225021 8 180 1.6 3.2 0.08 1.65 1.60 98 1006.5
20260506224600 8 0.0 1.6 0.10 1.65 1.60 98 1006.4
20260506224102 8 0.0 1.6 0.10 1.65 1.60 98 1006.4
20260506223620 8 0.0 1.6 0.10 1.65 1.60 98 1006.3
20260506223141 8 0.0 3.2 0.08 1.63 1.57 98 1006.1
20260506222749 8 0.0 3.2 0.10 1.63 1.57 98 1006.1
20260506222218 8 225 1.6 8.0 0.10 1.63 1.57 97 1006.1
20260506221541 8 0.0 3.2 0.10 1.63 1.57 98 1006.1
20260506221033 8 0.0 1.6 0.08 1.60 1.55 97 1006.0
20260506220548 8 0.0 1.6 0.10 1.60 1.55 97 1005.7
20260506220127 8 0.0 3.2 0.08 1.57 1.52 97 1005.8
20260506215652 8 23 1.6 4.8 0.10 1.57 1.52 97 1005.9
20260506215215 8 0 3.2 6.4 0.10 1.57 1.52 96 1005.9
20260506214706 8 0 3.2 6.4 0.08 1.55 1.50 96 1005.8
20260506214008 8 338 6.4 14.5 0.10 1.55 1.50 96 1006.0
20260506213528 8 0 6.4 16.1 0.10 1.55 1.50 95 1005.9
20260506213108 8 0 4.8 14.5 0.10 1.55 1.50 95 1005.9
20260506212559 8 0 6.4 14.5 0.08 1.52 1.47 95 1005.8